Huron, SD

4:49 PM CST on December 17, 2017 (GMT -0600)
Huron Regional

Weather History for KHON - September, 2013

Change the Weather History Date:

Tuesday, September 10, 2013

  Actual Average Record
Temperature  
Mean Temperature 75 °F 64 °F  
Max Temperature 86 °F 77 °F 103 °F (1931)
Min Temperature 63 °F 52 °F 30 °F (1898)
Degree Days  
Heating Degree Days 0 4  
Month to date heating degree days 2 27  
Since 1 July heating degree days 24 56  
Cooling Degree Days 10 3  
Month to date cooling degree days 99 40  
Year to date cooling degree days 787 709  
Growing Degree Days 25 (Base 50)    
Moisture  
Dew Point 58 °F    
Average Humidity 58    
Maximum Humidity 84    
Minimum Humidity 32    
Precipitation  
Precipitation T in 0.09 in 1.36 in (1933)
Month to date precipitation T 0.87  
Year to date precipitation 17.20 18.13  
Snow  
Snow 0.00 in 0.00 in 0.00 in ()
Month to date snowfall 0.0 0.0  
Since 1 July snowfall 0.0 0.0  
Since 1 September snowfall 0.0 0.0  
Snow Depth 0.00 in    
Sea Level Pressure  
Sea Level Pressure 29.94 in    
Wind  
Wind Speed 6 mph (West)    
Max Wind Speed 16 mph    
Max Gust Speed 20 mph    
Visibility 10 miles    
Events Rain    
T = Trace of Precipitation, MM = Missing Value Source: NWS Daily Summary

Daily Weather History Graph

Daily Weather History Graph

Search for Another Location

Airport or City:

Trip Planner

Search our weather history database for the weather conditions in past years. The results will help you decide how hot, cold, wet, or windy it might be!

Date:

Astronomy

Sep. 10, 2013 Rise Set
Actual Time 7:06 AM CDT 7:52 PM CDT
Civil Twilight 6:37 AM CDT 8:21 PM CDT
Nautical Twilight 6:02 AM CDT 8:56 PM CDT
Astronomical Twilight 5:25 AM CDT 9:32 PM CDT
Moon 12:47 PM CDT (9/10) 10:42 PM CDT (9/10)
Length of Visible Light 13h 44m
Length of Day
12h 45m
Waxing Crescent, 28% of the Moon is Illuminated
Sep 10
Waxing Crescent
Sep 12
First Quarter
Sep 19
Full
Sep 26
Last Quarter
Oct 4
New

Hourly Weather History & Observations

Time (CDT) Temp. Heat Index Dew Point Humidity Pressure Visibility Wind Dir Wind Speed Gust Speed Precip Events Conditions
12:55 AM 69.1 °F - 63.0 °F 81% 29.85 in 10.0 mi SW 4.6 mph - N/A   Scattered Clouds
1:55 AM 69.1 °F - 63.0 °F 81% 29.85 in 10.0 mi SSW 3.5 mph - 0.00 in   Mostly Cloudy
2:55 AM 69.1 °F - 64.0 °F 84% 29.85 in 10.0 mi Calm Calm - 0.00 in   Overcast
3:55 AM 69.1 °F - 63.0 °F 81% 29.89 in 10.0 mi SW 4.6 mph - N/A   Mostly Cloudy
4:55 AM 68.0 °F - 61.0 °F 78% 29.87 in 10.0 mi SSW 5.8 mph - 0.00 in   Scattered Clouds
5:55 AM 66.9 °F - 61.0 °F 81% 29.89 in 10.0 mi WSW 6.9 mph - 0.00 in Rain Light Rain
6:55 AM 66.0 °F - 61.0 °F 84% 29.89 in 10.0 mi WSW 5.8 mph - 0.00 in   Partly Cloudy
7:55 AM 66.9 °F - 61.0 °F 81% 29.91 in 10.0 mi WSW 4.6 mph - N/A   Clear
8:55 AM 69.1 °F - 63.0 °F 81% 29.93 in 10.0 mi WSW 6.9 mph - N/A   Clear
9:55 AM 73.0 °F - 63.0 °F 71% 29.95 in 10.0 mi West 11.5 mph - N/A   Clear
10:55 AM 79.0 °F - 59.0 °F 50% 29.96 in 10.0 mi WNW 6.9 mph - N/A   Clear
11:55 AM 75.9 °F - 57.0 °F 52% 29.97 in 10.0 mi WNW 5.8 mph - N/A   Clear
12:55 PM 80.1 °F 80.1 °F 55.0 °F 42% 29.96 in 10.0 mi West 5.8 mph - N/A   Clear
1:55 PM 84.0 °F 82.9 °F 55.0 °F 37% 29.96 in 10.0 mi WNW 11.5 mph 17.3 mph N/A   Clear
2:55 PM 86.0 °F 84.0 °F 53.1 °F 32% 29.94 in 10.0 mi WNW 12.7 mph 18.4 mph N/A   Clear
3:55 PM 84.0 °F 82.5 °F 53.1 °F 34% 29.94 in 10.0 mi WNW 11.5 mph - N/A   Clear
4:55 PM 81.0 °F 80.5 °F 54.0 °F 39% 29.95 in 10.0 mi WNW 11.5 mph - N/A   Clear
5:55 PM 81.0 °F 80.7 °F 55.0 °F 41% 29.95 in 10.0 mi NW 10.4 mph - N/A   Clear
6:55 PM 79.0 °F - 55.0 °F 44% 29.96 in 10.0 mi NW 5.8 mph - N/A   Clear
7:55 PM 72.0 °F - 54.0 °F 53% 29.98 in 10.0 mi NNW 4.6 mph - N/A   Clear
8:55 PM 69.1 °F - 55.9 °F 63% 29.99 in 10.0 mi NW 3.5 mph - N/A   Clear
9:55 PM 68.0 °F - 55.0 °F 63% 30.01 in 10.0 mi West 4.6 mph - N/A   Clear
10:55 PM 64.0 °F - 55.9 °F 75% 30.02 in 10.0 mi WNW 3.5 mph - N/A   Clear
11:55 PM 66.0 °F - 55.9 °F 70% 30.02 in 10.0 mi Calm Calm - N/A   Clear